Niagara Falls, NY

9:22 AM EDT on July 26, 2017 (GMT -0400)
Niagara Falls International

Weather History for KIAG - April, 2014

Change the Weather History Date:

Monday, April 14, 2014

  Actual Average Record
Temperature  
Mean Temperature 58 °F -  
Max Temperature 73 °F 54 °F 73 °F (2014)
Min Temperature 39 °F 35 °F 24 °F (1992)
Degree Days  
Heating Degree Days 8    
Growing Degree Days 8 (Base 50)    
Moisture  
Dew Point 48 °F    
Average Humidity 75    
Maximum Humidity 93    
Minimum Humidity 44    
Precipitation  
Precipitation 0.27 in - - ()
Sea Level Pressure  
Sea Level Pressure 29.64 in    
Wind  
Wind Speed 12 mph (SW)    
Max Wind Speed 24 mph    
Max Gust Speed 38 mph    
Visibility 8 miles    
Events Rain    
Averages and records for this station are not official NWS values.
T = Trace of Precipitation, MM = Missing Value Source: NWS Daily Summary

Daily Weather History Graph

Daily Weather History Graph

Search for Another Location

Airport or City:

Trip Planner

Search our weather history database for the weather conditions in past years. The results will help you decide how hot, cold, wet, or windy it might be!

Date:

Astronomy

Apr. 14, 2014 Rise Set
Actual Time 6:35 AM EDT 7:57 PM EDT
Civil Twilight 6:06 AM EDT 8:26 PM EDT
Nautical Twilight 5:30 AM EDT 9:02 PM EDT
Astronomical Twilight 4:53 AM EDT 9:40 PM EDT
Moon 7:34 PM EDT (4/14) 6:07 AM EDT (4/14)
Length of Visible Light 14h 20m
Length of Day
13h 21m
Full, 100% of the Moon is Illuminated
Apr 14
Full
Apr 15
Full
Apr 22
Last Quarter
Apr 29
New
May 6
First Quarter

Hourly Weather History & Observations

Time (EDT) Temp. Windchill Dew Point Humidity Pressure Visibility Wind Dir Wind Speed Gust Speed Precip Events Conditions
12:53 AM 55.0 °F - 48.9 °F 80% 29.74 in 9.0 mi ESE 4.6 mph - N/A   Clear
1:53 AM 57.0 °F - 50.0 °F 77% 29.70 in 10.0 mi SSE 5.8 mph - N/A   Clear
2:53 AM 55.9 °F - 48.9 °F 77% 29.68 in 9.0 mi SSE 3.5 mph - N/A   Clear
3:53 AM 53.1 °F - 48.0 °F 83% 29.66 in 8.0 mi SSW 4.6 mph - N/A   Clear
4:53 AM 60.8 °F - 46.4 °F 59% 29.65 in 10.0 mi SSW 8.1 mph - N/A   Clear
5:53 AM 64.0 °F - 45.0 °F 50% 29.62 in 10.0 mi SSW 11.5 mph - N/A   Clear
6:53 AM 62.1 °F - 45.0 °F 53% 29.62 in 10.0 mi South 9.2 mph - N/A   Clear
7:03 AM 62.1 °F - 45.0 °F 53% 29.62 in 7.0 mi South 10.4 mph - N/A   Overcast
7:53 AM 66.0 °F - 48.0 °F 52% 29.60 in 7.0 mi South 12.7 mph - N/A   Overcast
8:53 AM 71.1 °F - 50.0 °F 47% 29.59 in 10.0 mi SSW 21.9 mph 32.2 mph N/A   Overcast
9:53 AM 72.0 °F - 50.0 °F 46% 29.57 in 10.0 mi South 23.0 mph 34.5 mph N/A   Overcast
10:53 AM 72.0 °F - 50.0 °F 46% 29.57 in 10.0 mi SSW 24.2 mph 36.8 mph N/A   Overcast
11:53 AM 73.0 °F - 50.0 °F 44% 29.57 in 10.0 mi SW 24.2 mph 35.7 mph N/A   Overcast
12:39 PM 66.9 °F - 51.1 °F 57% 29.59 in 7.0 mi WSW 18.4 mph 35.7 mph 0.00 in Rain Light Rain
12:53 PM 64.9 °F - 53.1 °F 65% 29.59 in 7.0 mi WSW 23.0 mph 33.4 mph 0.00 in Rain Light Rain
1:53 PM 60.8 °F - 53.6 °F 77% 29.60 in 7.0 mi SW 21.9 mph 38.0 mph N/A Rain Light Rain
2:53 PM 61.0 °F - 57.0 °F 87% 29.59 in 5.0 mi WSW 21.9 mph 29.9 mph 0.02 in Rain Light Rain
3:53 PM 59.0 °F - 55.9 °F 90% 29.60 in 5.0 mi SSW 17.3 mph - 0.08 in Rain Light Rain
4:53 PM 60.1 °F - 55.9 °F 86% 29.61 in 3.0 mi SW 23.0 mph 26.5 mph 0.07 in Rain Light Rain
5:53 PM 55.9 °F - 54.0 °F 93% 29.61 in 9.0 mi SW 17.3 mph - 0.06 in Rain Light Rain
6:12 PM 55.9 °F - 54.0 °F 93% 29.61 in 3.0 mi SW 11.5 mph - 0.02 in Rain Light Rain
6:39 PM 55.9 °F - 54.0 °F 93% 29.62 in 5.0 mi SW 18.4 mph - 0.03 in Rain Light Rain
6:53 PM 55.9 °F - 54.0 °F 93% 29.63 in 9.0 mi SW 16.1 mph - 0.03 in Rain Light Rain
7:28 PM 55.0 °F - 53.1 °F 93% 29.62 in 10.0 mi SW 12.7 mph - 0.01 in   Overcast
7:53 PM 54.0 °F - 51.1 °F 90% 29.64 in 10.0 mi SSW 11.5 mph - 0.01 in   Overcast
8:10 PM 52.0 °F - 50.0 °F 93% 29.64 in 10.0 mi SW 9.2 mph - N/A   Overcast
8:53 PM 48.9 °F - 44.1 °F 83% 29.68 in 10.0 mi NW 13.8 mph - 0.00 in Rain Light Rain
9:29 PM 46.0 °F 41.0 °F 42.1 °F 86% 29.69 in 10.0 mi NW 10.4 mph - 0.00 in Rain Light Rain
9:43 PM 45.0 °F 39.3 °F 41.0 °F 86% 29.70 in 10.0 mi NW 11.5 mph - 0.00 in   Overcast
9:53 PM 45.0 °F 39.7 °F 39.9 °F 82% 29.71 in 10.0 mi NW 10.4 mph - 0.00 in   Overcast
10:03 PM 44.1 °F 39.5 °F 39.9 °F 85% 29.71 in 10.0 mi NW 8.1 mph - 0.00 in Rain Light Rain
10:53 PM 42.1 °F 36.6 °F 37.9 °F 85% 29.69 in 10.0 mi NW 9.2 mph - 0.00 in Rain Light Rain
11:17 PM 42.1 °F 36.6 °F 37.9 °F 85% 29.70 in 10.0 mi WNW 9.2 mph - 0.00 in   Overcast
11:53 PM 39.9 °F 34.5 °F 37.9 °F 93% 29.69 in 10.0 mi NW 8.1 mph - 0.00 in   Overcast